Weather History for Vigo, Spain

Change the Weather History Date:

Monday, August 20, 2012

  Actual Average Record
Temperature  
Mean Temperature 70 °F -  
Max Temperature 77 °F 72 °F 100 °F (2013)
Min Temperature 62 °F 56 °F 50 °F (2008)
Cooling Degree Days 4    
Growing Degree Days 20 (Base 50)    
Moisture  
Dew Point 65 °F    
Average Humidity 84    
Maximum Humidity 100    
Minimum Humidity 60    
Precipitation  
Precipitation 0.00 in 0.11 in - ()
Sea Level Pressure  
Sea Level Pressure 30.14 in    
Wind  
Wind Speed 3 mph ()    
Max Wind Speed 13 mph    
Max Gust Speed -    
Visibility 5.8 miles    
Events Fog    
Averages and records for this station are not official NWS values.
T = Trace of Precipitation, MM = Missing Value Source: Averaged Metar Reports

Daily Weather History Graph

Daily Weather History Graph

Search for Another Location

Airport:

Trip Planner

Search our weather history database for the weather conditions in past years. The results will help you decide how hot, cold, wet, or windy it might be!

Date:

Astronomy

Aug. 20, 2012 Rise Set
Actual Time 7:47 AM CEST 9:27 PM CEST
Civil Twilight 7:17 AM CEST 9:56 PM CEST
Nautical Twilight 6:41 AM CEST 10:32 PM CEST
Astronomical Twilight 6:02 AM CEST 11:11 PM CEST
Moon 10:59 AM CEST (8/20) 10:37 PM CEST (8/20)
Length of Visible Light 14h 39m
Length of Day
13h 39m
Waxing Crescent, 9% of the Moon is Illuminated
Aug 20
Waxing Crescent
Aug 24
First Quarter
Aug 31
Full
Sep 8
Last Quarter
Sep 16
New

Hourly Weather History & Observations

Time (CEST) Temp. Dew Point Humidity Pressure Visibility Wind Dir Wind Speed Gust Speed Precip Events Conditions
12:00 AM 66.2 °F 64.4 °F 94% 30.15 in 5.0 mi Variable 1.2 mph - N/A   Partly Cloudy
12:30 AM 66.2 °F 64.4 °F 94% 30.15 in 6.2 mi Variable 2.3 mph - N/A   Mostly Cloudy
1:00 AM 66.2 °F 64.4 °F 94% 30.15 in 6.2 mi Variable 2.3 mph - N/A   Partly Cloudy
1:30 AM 66.2 °F 64.4 °F 94% 30.15 in 6.2 mi Variable 2.3 mph - N/A   Partly Cloudy
2:00 AM 66 °F 64 °F 90% 30.14 in - NW 2.3 mph - -  
2:00 AM 64.4 °F 62.6 °F 94% 30.15 in 6.2 mi Variable 2.3 mph - N/A   Scattered Clouds
2:30 AM 64.4 °F 62.6 °F 94% 30.15 in 5.0 mi Variable 2.3 mph - N/A   Scattered Clouds
3:00 AM 64.4 °F 62.6 °F 94% 30.15 in 5.0 mi Variable 2.3 mph - N/A   Mostly Cloudy
3:30 AM 64.4 °F 62.6 °F 94% 30.15 in 5.0 mi Variable 2.3 mph - N/A   Mostly Cloudy
4:00 AM 64.4 °F 62.6 °F 94% 30.15 in 4.3 mi Variable 2.3 mph - N/A   Mostly Cloudy
4:30 AM 64.4 °F 62.6 °F 94% 30.15 in 4.3 mi Variable 2.3 mph - N/A   Mostly Cloudy
5:00 AM 62.6 °F 60.8 °F 94% 30.15 in 3.1 mi Variable 2.3 mph - N/A   Mostly Cloudy
5:30 AM 62.6 °F 60.8 °F 94% 30.15 in 3.1 mi Variable 2.3 mph - N/A   Mostly Cloudy
6:00 AM 64.4 °F 62.6 °F 94% 30.12 in 4.3 mi Variable 1.2 mph - N/A Fog Patches of Fog
6:30 AM 64.4 °F 62.6 °F 94% 30.12 in 4.3 mi SW 6.9 mph - N/A Fog Patches of Fog
7:00 AM 64.4 °F 62.6 °F 94% 30.15 in 4.3 mi SW 5.8 mph - N/A Fog Mostly Cloudy
7:30 AM 62.6 °F 62.6 °F 100% 30.15 in 6.2 mi Calm Calm - N/A Fog Patches of Fog
8:00 AM 64 °F 63 °F 95% 30.15 in 4 mi Calm Calm - -   Mist
8:00 AM 62.6 °F 62.6 °F 100% 30.15 in 6.2 mi Calm Calm - N/A Fog Patches of Fog
8:30 AM 62.6 °F 62.6 °F 100% 30.15 in 6.2 mi Variable 1.2 mph - N/A Fog Unknown
9:00 AM 68.0 °F 68.0 °F 100% 30.15 in 6.2 mi Calm Calm - N/A Fog Unknown
9:30 AM 68.0 °F 66.2 °F 94% 30.15 in - Calm Calm - N/A   Clear
10:00 AM 66.2 °F 64.4 °F 94% 30.15 in 6.2 mi Calm Calm - N/A Fog Unknown
11:00 AM 71.6 °F 68.0 °F 88% 30.18 in 6.2 mi Variable 1.2 mph - N/A Fog Partly Cloudy
12:00 PM 71.6 °F 66.2 °F 83% 30.18 in 6.2 mi Variable 2.3 mph - N/A   Mostly Cloudy
12:30 PM 73.4 °F 66.2 °F 78% 30.18 in 6.2 mi Variable 3.5 mph - N/A   Scattered Clouds
1:00 PM 77.0 °F 68.0 °F 74% 30.18 in 6.2 mi WSW 5.8 mph - N/A   Scattered Clouds
1:30 PM 78.8 °F 68.0 °F 69% 30.18 in 6.2 mi WSW 6.9 mph - N/A   Scattered Clouds
2:00 PM 77 °F 66 °F 60% 30.14 in 12 mi West 4.6 mph - -   Partly Cloudy
2:00 PM 78.8 °F 68.0 °F 69% 30.15 in 6.2 mi West 6.9 mph - N/A   Scattered Clouds
2:30 PM 78.8 °F 68.0 °F 69% 30.15 in 6.2 mi West 6.9 mph - N/A   Scattered Clouds
3:00 PM 78.8 °F 68.0 °F 69% 30.15 in 6.2 mi West 8.1 mph - N/A   Scattered Clouds
3:30 PM 78.8 °F 68.0 °F 69% 30.15 in 6.2 mi West 9.2 mph - N/A   Scattered Clouds
4:00 PM 77.0 °F 68.0 °F 74% 30.15 in 6.2 mi West 9.2 mph - N/A   Scattered Clouds
4:30 PM 77.0 °F 68.0 °F 74% 30.15 in 6.2 mi West 11.5 mph - N/A   Partly Cloudy
5:00 PM 77.0 °F 68.0 °F 74% 30.15 in 6.2 mi West 10.4 mph - N/A   Partly Cloudy
5:30 PM 77.0 °F 68.0 °F 74% 30.15 in 6.2 mi WSW 12.7 mph - N/A   Partly Cloudy
6:00 PM 77.0 °F 66.2 °F 69% 30.12 in 6.2 mi West 8.1 mph - N/A   Partly Cloudy
6:30 PM 77.0 °F 66.2 °F 69% 30.12 in 6.2 mi West 9.2 mph - N/A   Partly Cloudy
7:00 PM 77.0 °F 66.2 °F 69% 30.12 in 6.2 mi West 8.1 mph - N/A   Partly Cloudy
7:30 PM 75.2 °F 66.2 °F 73% 30.12 in - West 9.2 mph - N/A   Clear
8:00 PM 74 °F 63 °F 60% 30.11 in 22 mi West 11.5 mph - -   Scattered Clouds
8:00 PM 75.2 °F 66.2 °F 73% 30.12 in - West 10.4 mph - N/A   Clear
8:30 PM 73.4 °F 64.4 °F 73% 30.12 in - West 9.2 mph - N/A   Clear
9:00 PM 69.8 °F 62.6 °F 78% 30.12 in - West 8.1 mph - N/A   Clear
9:30 PM 68.0 °F 60.8 °F 78% 30.12 in - West 6.9 mph - N/A   Clear
10:00 PM 66.2 °F 60.8 °F 83% 30.12 in - West 5.8 mph - N/A   Clear
10:30 PM 66.2 °F 60.8 °F 83% 30.12 in - West 4.6 mph - N/A   Clear
11:00 PM 64.4 °F 60.8 °F 88% 30.15 in - Variable 2.3 mph - N/A   Clear
11:30 PM 64.4 °F 60.8 °F 88% 30.15 in - Variable 2.3 mph - N/A   Clear